Theta_e
362 363 363 363 364 364 363 363 363 362 363 364 363 363 363 363 362 362 363 362 363 364 365 365 364 365 364 365 362 363 365 364 364 365 367 367 366 366 365 365 365 364 365 365 364 365 367 365 366 366 367 364 362 362 361 364 366 363 362 360 358 359 356 351 346 345 350 353 351 351 354 355 351 356 357 357 357 359 357 360 360 357 358 357 357
362 364 363 363 363 363 363 363 364 364 364 363 363 362 363 363 364 364 361 363 364 363 365 365 364 364 364 365 366 364 366 368 365 364 365 367 367 363 364 366 367 365 365 365 366 366 367 368 366 366 368 367 363 361 361 360 361 361 362 360 358 359 361 355 352 349 348 354 352 357 355 358 355 360 356 354 356 358 356 360 362 361 359 358 356
361 364 363 364 364 364 364 364 365 364 362 362 360 361 362 364 364 362 361 361 364 364 363 363 365 366 365 365 367 366 367 368 368 365 365 367 367 364 362 365 366 364 363 365 365 366 365 367 366 366 364 365 366 363 361 361 361 360 360 362 361 360 362 361 356 353 352 353 357 354 355 357 356 358 361 359 361 361 360 357 354 356 359 359 358
360 363 363 363 363 364 364 364 363 362 361 360 360 361 361 362 363 362 361 360 361 364 364 364 365 367 365 366 367 368 368 366 367 367 366 366 367 367 365 365 366 366 364 364 364 365 364 366 365 363 364 364 366 365 364 363 362 362 362 363 363 362 363 363 363 358 356 351 357 356 357 356 356 359 360 361 359 359 358 359 359 358 356 355 356
360 361 362 361 362 363 362 362 362 362 361 360 360 360 360 360 362 362 362 360 360 363 364 365 366 366 365 365 366 367 367 368 367 364 364 366 366 365 366 367 367 367 366 366 365 366 366 365 364 365 366 365 366 365 364 366 366 363 362 364 363 364 364 362 363 363 359 355 356 359 361 361 361 362 363 359 358 358 360 360 359 359 360 358 357
360 360 361 360 361 362 362 362 361 361 361 360 360 360 360 360 361 362 362 361 361 360 363 364 363 366 367 367 367 368 369 368 369 367 362 363 366 365 365 366 366 368 368 366 367 367 366 366 366 366 365 365 365 364 367 367 368 366 364 363 363 364 364 365 364 363 361 359 360 358 362 358 359 360 362 362 359 357 358 359 360 360 360 360 358
360 360 361 360 361 361 362 362 362 361 362 361 360 360 360 360 360 361 362 362 360 359 360 364 365 365 367 368 366 367 368 368 368 369 366 364 365 366 363 364 365 367 368 366 365 366 366 366 366 366 366 366 364 364 366 368 367 367 367 367 367 365 364 364 364 363 362 361 360 361 359 360 360 356 361 363 363 361 357 356 356 360 360 358 357
359 360 361 360 361 360 362 363 362 363 363 365 363 361 360 360 361 362 363 363 360 359 359 361 364 364 366 367 367 368 368 368 369 370 370 366 364 365 365 364 362 364 366 366 364 362 363 364 363 365 366 368 368 367 367 365 368 367 368 369 368 366 364 362 363 361 359 358 357 356 359 358 360 362 363 364 361 360 361 358 354 356 358 361 362
358 359 360 360 362 364 364 364 364 365 365 365 363 362 362 362 362 363 364 363 361 361 360 360 363 365 365 367 367 366 365 366 367 368 369 368 366 363 365 365 363 362 364 363 364 364 363 361 361 361 365 370 366 365 367 367 367 366 369 369 369 366 364 362 361 360 358 357 356 357 355 357 359 359 358 358 358 357 361 361 358 358 358 357 360
358 358 359 361 363 365 365 366 366 365 365 365 365 364 363 363 362 363 363 364 364 364 363 362 362 363 364 366 367 366 365 365 359 343 351 368 368 363 363 366 366 364 364 364 361 363 363 362 358 365 364 365 361 352 346 349 352 358 364 368 367 366 363 361 359 359 358 355 354 354 353 353 355 358 358 358 360 361 358 358 353 355 356 355 357
357 358 360 362 364 365 365 365 366 365 365 365 366 366 364 364 364 365 365 365 365 366 364 363 362 362 363 364 365 364 364 362 342 334 336 342 364 368 365 366 368 367 365 366 365 362 362 363 364 366 369 361 363 346 344 341 341 342 343 347 356 366 365 360 359 360 356 355 356 355 354 355 356 357 356 356 358 357 356 358 356 355 352 349 348
357 360 361 363 365 365 364 366 366 365 366 366 367 367 366 366 365 366 365 365 366 366 364 364 364 362 362 364 363 364 364 347 333 332 334 334 344 365 366 365 365 366 366 365 365 365 363 360 361 363 366 368 368 370 355 341 337 338 337 338 340 340 343 359 362 360 360 357 356 357 357 356 355 357 356 355 358 359 359 358 358 354 353 353 353
359 361 361 363 365 366 366 366 365 366 366 367 368 367 366 365 365 365 364 366 366 366 366 364 364 364 362 363 362 363 364 342 330 329 331 331 333 347 362 364 363 363 365 366 365 365 365 364 363 363 363 370 366 367 371 370 340 333 335 336 336 334 333 333 336 357 361 360 359 358 357 357 356 359 361 361 363 359 358 356 357 356 356 354 354
360 360 362 364 366 367 366 366 366 366 367 368 368 367 366 365 365 364 364 366 366 365 364 365 365 366 364 364 364 363 364 342 328 326 327 328 330 338 360 360 361 362 364 365 366 366 367 368 366 366 366 368 369 368 368 368 370 361 355 356 358 352 335 329 329 329 338 355 359 358 361 364 360 363 366 366 362 357 356 356 359 356 354 353 356
359 361 362 365 367 366 366 366 366 367 367 367 367 367 366 366 365 364 363 363 364 365 364 364 365 366 365 364 363 361 361 334 325 324 324 324 326 333 360 360 360 362 363 365 367 366 368 368 369 367 368 368 369 369 370 370 370 368 366 366 366 367 368 362 355 353 353 352 355 358 361 364 365 365 365 365 364 363 362 361 360 356 355 357 355
359 361 363 364 365 366 365 365 366 367 367 366 366 365 366 366 366 364 363 363 364 365 365 364 364 364 364 364 362 362 362 333 323 322 321 322 324 348 359 361 360 361 363 365 365 368 368 368 369 369 369 369 361 347 354 369 368 367 364 364 364 364 364 360 347 352 363 363 362 361 361 365 350 366 366 361 363 363 361 359 358 355 352 350 349
359 361 361 362 363 365 364 363 365 365 365 365 365 364 365 365 366 367 363 362 361 361 363 363 365 363 364 364 363 363 363 341 321 319 319 319 327 356 359 359 361 361 362 364 365 366 368 369 369 368 368 369 356 338 334 344 366 364 364 364 363 363 362 364 345 333 333 332 333 334 333 335 332 328 327 328 343 351 354 351 349 352 350 347 348
359 362 361 363 364 364 364 364 364 365 365 364 364 364 364 365 365 366 363 361 358 360 362 363 364 364 363 363 363 363 363 345 319 317 317 316 333 357 360 359 361 362 362 364 365 366 368 364 368 369 369 369 346 333 331 346 365 365 364 362 361 360 361 362 365 370 329 326 327 329 328 328 327 326 325 324 324 331 349 348 352 352 349 347 344
359 361 361 362 364 364 364 364 365 364 365 365 364 364 364 365 365 365 363 362 360 361 362 362 362 364 362 362 353 359 363 348 318 318 316 315 335 360 360 360 360 361 361 362 365 365 366 364 359 357 361 359 338 331 327 343 365 365 364 363 359 358 359 364 364 364 368 368 365 356 354 341 346 351 353 332 327 333 345 350 353 350 347 344 344
361 363 362 363 364 364 364 365 365 364 365 366 365 364 365 363 364 363 363 362 361 360 360 361 361 361 362 362 361 361 361 365 343 316 315 314 321 358 362 360 359 361 362 362 363 366 366 367 359 334 331 331 329 326 323 323 360 366 365 361 359 356 361 363 367 368 368 366 367 367 365 364 363 363 363 363 354 349 351 353 355 353 349 346 345
363 364 364 362 362 363 363 364 364 365 366 366 364 364 364 363 363 364 362 361 361 361 360 360 359 361 361 363 363 362 362 363 358 314 314 313 316 331 360 361 362 362 363 361 361 361 363 364 366 341 326 325 324 322 320 316 329 364 364 363 363 363 360 367 367 365 366 365 364 361 360 360 360 359 359 360 358 355 352 353 354 354 353 348 344
364 365 364 363 362 363 363 365 365 364 366 367 366 364 365 365 364 363 361 362 363 362 363 362 360 360 362 364 366 366 364 354 374 320 315 312 314 318 352 360 361 363 363 362 361 361 362 364 367 347 322 323 321 319 317 317 317 350 361 334 331 332 362 365 366 364 362 362 360 357 356 355 355 356 355 354 352 351 353 353 351 350 354 353 348
365 365 365 362 363 363 364 365 365 364 365 367 367 364 364 364 365 366 365 364 364 363 364 364 363 361 364 365 366 368 370 367 339 344 315 313 311 314 324 344 335 364 362 362 362 362 365 366 365 350 321 317 316 316 316 316 320 340 327 325 325 328 341 357 360 359 358 357 355 354 353 354 355 352 352 350 352 354 349 347 348 350 350 350 349
367 366 364 363 363 364 365 365 366 367 366 367 367 366 365 364 365 365 366 364 363 363 363 365 364 362 361 363 364 366 370 370 345 333 330 312 312 311 315 321 330 355 362 361 363 362 363 366 361 335 315 310 311 314 315 316 335 323 320 322 325 330 349 355 353 356 353 352 352 352 355 355 353 352 349 352 349 348 346 346 348 349 348 346 346
366 366 364 363 364 365 365 366 367 366 367 367 367 365 366 366 364 367 367 365 364 364 365 365 364 363 361 361 363 366 368 369 371 346 325 315 312 311 313 316 319 323 357 361 364 363 347 339 335 320 314 311 310 312 314 314 315 319 319 319 329 347 354 355 355 357 354 352 353 355 354 353 351 349 352 349 346 347 347 347 347 346 346 346 345
367 366 365 365 365 364 365 365 368 368 367 367 368 368 366 365 364 366 365 364 366 365 364 364 365 364 361 362 364 366 369 370 371 367 338 326 319 313 314 314 318 318 332 353 335 321 315 314 313 315 316 322 340 349 353 351 323 321 323 325 346 352 356 360 359 354 354 353 352 350 350 349 347 349 346 347 347 344 343 341 340 340 341 340 338
365 366 365 363 366 365 365 365 366 368 368 365 366 367 366 365 365 365 365 364 365 364 364 364 363 362 361 362 364 366 369 369 370 371 364 354 348 337 325 327 317 320 330 349 342 347 339 343 349 338 339 331 342 343 340 330 335 338 343 345 352 357 359 360 360 359 355 352 349 349 348 345 346 345 345 344 344 343 343 338 338 338 338 337 337
362 364 363 363 364 364 364 364 364 364 366 365 362 364 366 365 365 365 365 366 365 365 365 363 364 365 362 362 364 365 367 368 369 370 369 366 361 357 348 345 343 339 342 348 353 355 356 333 334 355 354 355 357 357 356 356 352 349 352 355 357 357 356 348 345 354 354 351 347 344 343 345 343 341 341 341 341 340 340 337 336 336 336 336 336
363 362 361 361 362 365 363 363 362 363 366 367 366 366 368 367 367 368 371 371 369 367 368 366 367 366 365 365 365 367 369 369 372 348 380 346 361 363 359 353 352 349 341 332 353 356 356 352 352 352 352 350 351 353 352 351 352 352 352 354 355 354 354 353 355 352 351 346 343 345 340 341 341 340 339 339 340 339 339 336 338 336 337 336 334
362 360 359 359 360 362 361 360 362 362 363 365 366 362 313 303 324 367 371 345 343 338 339 369 373 369 367 369 373 369 370 372 344 331 330 327 327 331 334 331 329 344 332 322 344 354 353 352 352 350 350 351 350 349 349 349 349 349 351 341 348 350 349 350 349 347 350 344 342 339 340 337 338 338 337 335 338 337 336 329 336 337 335 332 332
365 364 367 365 362 365 363 362 364 365 364 365 368 367 361 344 298 296 308 316 308 309 312 313 315 323 363 371 365 343 339 321 319 317 317 316 315 317 319 318 317 320 314 340 350 353 353 351 351 350 349 351 350 349 349 348 347 348 347 345 345 345 342 344 344 342 340 337 336 338 337 336 336 336 334 334 335 336 336 336 335 336 333 332 330
367 366 368 368 367 372 367 365 366 367 367 368 370 368 365 363 359 304 295 303 304 303 305 308 310 314 313 323 346 372 334 315 310 310 309 310 310 309 310 310 307 306 312 323 350 353 353 353 352 353 352 350 349 349 349 349 347 344 342 337 337 339 337 339 340 340 336 337 336 335 336 335 334 335 334 333 329 334 334 334 334 333 332 332 331
367 368 369 369 367 369 368 370 370 371 370 371 369 368 365 362 360 359 336 297 296 302 304 302 305 308 310 312 308 317 314 321 310 305 304 307 307 308 305 300 302 304 313 341 354 352 354 355 354 354 351 350 352 352 351 349 344 339 338 338 336 335 337 341 339 339 336 337 337 334 334 334 333 333 330 332 333 333 332 332 332 333 332 330 328
365 364 365 369 369 369 369 371 370 370 371 370 368 367 364 364 362 363 359 352 346 316 298 296 299 311 309 304 306 308 314 315 306 304 303 303 300 300 305 313 300 305 326 352 354 356 356 355 354 354 354 353 354 352 348 342 339 339 337 336 336 337 340 341 340 337 335 334 333 332 332 333 332 333 333 333 332 331 332 332 331 329 329 328 327
360 358 359 364 367 366 367 368 367 369 367 368 366 364 365 364 364 363 361 358 357 356 357 340 304 295 321 316 297 298 303 303 301 299 298 299 301 302 310 339 341 339 344 353 354 358 358 356 356 354 356 350 343 339 338 337 338 338 337 337 337 338 337 335 335 337 334 333 334 333 332 333 334 332 332 331 331 331 329 329 329 328 327 326 326
355 356 358 360 359 361 362 366 365 365 364 364 365 362 363 362 360 360 357 362 359 359 359 356 341 308 299 294 292 294 295 296 297 298 299 300 303 313 352 352 349 347 348 350 354 354 353 353 351 349 345 341 339 338 339 339 338 337 337 336 335 334 335 335 335 336 337 335 333 333 331 334 333 331 333 331 331 330 329 328 325 324 325 325 326
351 352 353 356 356 358 360 363 364 364 356 360 363 361 360 361 358 360 359 359 358 360 359 348 346 334 323 321 306 296 294 295 296 297 298 301 304 337 360 357 354 351 347 350 351 349 349 345 342 340 339 337 336 336 337 337 337 337 331 335 335 334 335 336 335 334 335 333 333 333 335 334 334 335 332 330 328 328 328 328 327 324 324 322 322
348 348 350 351 357 357 358 360 358 347 357 360 363 362 361 361 361 358 359 358 359 356 356 353 342 351 351 333 323 321 310 300 300 302 304 307 324 344 352 354 353 350 349 348 346 346 343 340 337 334 335 335 335 335 335 335 336 334 334 337 337 337 330 334 332 335 335 332 333 334 333 334 333 331 328 329 328 327 325 324 326 326 328 325 324
350 335 330 333 339 354 352 351 353 357 355 356 357 359 356 359 358 358 359 358 354 354 352 351 353 351 339 332 328 323 324 334 337 334 334 337 340 344 344 346 347 346 345 345 341 340 340 337 335 335 335 335 335 336 335 334 332 332 336 336 337 335 332 331 333 336 332 331 331 332 331 331 332 332 333 328 326 328 328 326 326 325 325 324 325
346 348 344 335 345 347 349 352 351 351 353 352 354 355 356 356 356 356 356 355 353 350 351 349 347 344 338 336 331 336 340 337 336 337 337 337 338 338 340 338 336 335 337 338 337 334 333 334 335 335 336 336 336 334 334 333 333 332 333 331 330 328 328 329 330 330 330 331 330 331 330 330 330 329 329 329 327 327 327 327 325 326 326 326 326
344 346 346 342 338 346 349 349 350 349 352 351 353 354 354 353 355 354 353 351 351 348 345 341 338 336 333 329 315 321 340 337 335 335 335 336 335 336 337 335 332 332 333 334 333 331 331 332 333 334 335 335 337 336 335 334 332 332 331 329 330 329 330 329 329 329 329 329 330 330 330 329 330 331 330 329 320 324 328 326 328 328 326 327 326
342 342 347 347 349 348 347 347 347 347 350 350 350 349 349 348 350 349 347 346 343 340 334 330 329 329 312 303 306 310 331 335 335 332 333 334 333 334 333 334 335 334 333 332 333 334 335 336 335 334 333 333 333 333 333 331 331 331 331 331 330 329 327 328 328 329 328 328 329 329 330 330 330 329 329 320 329 331 329 328 329 327 327 326 326
340 341 343 343 345 345 345 345 346 347 346 345 345 344 343 344 345 345 342 339 335 331 328 327 326 327 324 313 315 316 331 331 329 330 331 332 334 334 333 332 332 333 333 334 334 334 334 333 332 332 332 332 333 332 332 332 331 329 329 330 329 327 326 327 328 328 329 329 330 329 331 329 325 328 332 330 330 329 329 329 327 326 326 327 326
337 338 340 341 342 342 343 344 343 344 343 340 341 340 342 340 340 339 336 333 331 330 329 328 327 326 327 325 324 328 330 329 326 324 323 322 323 323 323 322 324 327 328 328 328 328 327 326 325 324 325 325 326 327 327 329 332 332 332 331 330 327 328 327 328 328 329 330 330 330 330 330 331 329 328 329 329 329 328 328 327 326 327 325 325
336 336 337 338 339 340 341 343 341 341 338 339 338 337 335 335 334 332 330 329 328 329 329 328 328 327 326 328 328 326 324 322 320 320 320 321 320 320 320 321 323 323 322 322 324 325 323 322 322 322 321 321 322 322 322 322 323 324 325 327 330 329 329 330 331 333 333 333 331 330 330 328 329 328 328 328 327 327 324 325 325 323 324 326 325
331 333 334 334 334 335 336 338 336 337 335 334 332 330 328 329 329 328 327 326 325 323 320 319 318 317 317 318 319 319 318 317 317 318 319 320 320 319 318 319 320 321 321 321 321 322 322 322 321 320 320 321 321 321 320 320 320 320 320 320 319 319 319 321 324 327 330 332 332 331 329 328 329 328 327 327 325 325 326 326 325 323 324 323 323
325 326 327 328 328 327 326 327 327 328 329 327 327 324 323 322 321 320 319 319 319 318 317 316 315 314 314 313 312 312 311 309 309 310 313 315 316 317 318 318 319 319 319 320 321 321 321 320 320 320 320 319 318 318 318 318 319 316 315 313 312 313 312 311 317 323 325 326 327 328 330 328 327 326 326 325 324 324 326 325 323 323 323 321 321
318 319 319 320 320 319 320 320 319 319 319 318 318 317 317 317 317 317 317 317 317 316 315 314 314 313 312 311 311 311 310 308 308 309 309 308 308 308 309 311 313 314 315 315 316 317 318 317 317 316 316 315 314 315 314 314 314 313 311 309 304 301 299 298 317 321 320 321 324 326 328 327 327 327 326 326 326 325 324 323 322 322 322 321 321
313 313 312 312 312 312 314 314 315 314 314 314 313 313 312 312 312 312 312 313 313 314 314 313 312 312 311 311 311 310 309 309 308 308 307 307 306 305 305 305 307 307 309 309 310 310 311 311 312 312 312 311 311 311 311 309 307 306 305 303 298 291 290 292 302 309 302 314 323 326 328 328 328 327 327 326 324 325 324 324 323 321 321 321 320
310 310 309 309 309 309 310 310 310 310 311 311 311 310 311 310 310 310 309 309 309 309 310 310 311 311 311 310 309 309 309 308 306 306 306 307 306 306 306 305 305 305 305 305 305 305 306 307 306 307 307 307 305 304 304 303 303 303 302 298 290 289 289 291 296 295 303 319 324 326 327 327 327 326 326 325 325 324 323 322 322 322 321 322 321
310 309 308 307 307 307 307 306 306 306 306 305 305 305 305 305 305 305 306 305 305 306 306 306 306 306 306 306 307 306 306 307 307 306 306 305 303 303 302 302 302 302 302 301 301 302 302 302 302 303 303 303 302 301 300 298 296 294 291 290 289 289 289 292 300 293 293 299 323 324 323 323 324 323 322 321 321 322 321 320 319 320 321 319 319
Wind_Speed
21 19 17 18 18 19 19 17 18 16 16 15 14 13 13 13 12 12 11 11 10 11 11 11 11 10 10 9 10 9 9 9 8 8 8 8 8 8 7 7 8 7 7 8 8 7 7 8 8 8 7 7 6 6 6 6 6 6 6 6 6 6 6 7 8 10 8 6 7 7 7 8 8 8 9 8 8 7 10 10 10 10 10 10 10
20 19 18 17 20 19 19 18 17 15 16 16 15 14 13 13 12 11 12 12 11 12 12 11 11 11 11 10 10 10 9 9 9 9 9 9 10 8 8 9 9 9 8 8 8 7 7 8 8 8 8 8 8 8 7 7 7 7 6 6 6 6 6 7 7 8 10 6 7 7 7 7 9 8 9 9 9 8 9 8 8 9 10 10 10
20 18 18 18 20 18 18 17 17 19 19 16 17 16 14 14 13 13 13 12 12 12 12 12 11 11 11 10 10 10 10 10 9 9 9 10 10 9 9 9 10 10 10 9 9 8 9 9 9 8 7 8 8 8 8 8 7 7 7 6 6 6 6 7 7 8 10 9 7 8 7 7 8 8 8 9 9 8 9 10 10 9 9 10 10
20 19 19 20 21 19 19 17 19 19 18 16 18 17 15 14 14 14 14 12 12 12 12 12 12 11 12 11 11 10 10 10 10 10 11 10 10 10 10 9 9 10 10 10 10 9 9 9 9 9 8 8 8 8 7 7 7 7 7 7 7 7 7 7 9 8 8 10 8 8 8 8 9 9 9 8 9 9 9 9 9 10 10 10 11
20 20 20 21 20 20 20 19 19 19 19 17 19 18 17 15 14 15 14 14 13 12 12 12 12 12 11 12 12 12 11 11 11 11 10 10 10 10 10 10 10 10 10 10 9 9 10 10 9 9 8 9 8 8 8 9 8 7 7 7 7 7 7 7 8 9 9 10 10 8 8 8 9 9 9 9 9 9 9 10 9 9 10 12 11
21 20 20 20 20 21 20 19 20 20 19 18 19 18 16 16 15 14 15 15 14 13 13 12 12 13 12 12 12 12 11 11 12 12 12 11 10 10 10 10 10 10 10 10 10 10 10 10 10 9 9 10 9 8 8 8 8 8 8 7 7 7 7 8 8 8 9 10 9 9 8 9 9 8 8 8 9 9 8 8 9 10 10 11 11
20 20 20 21 19 21 20 20 19 19 18 17 16 16 16 17 16 15 14 15 15 14 14 14 12 13 13 13 13 12 12 12 11 12 11 11 11 11 11 11 11 10 10 11 11 11 11 11 10 11 11 11 10 9 8 8 8 9 8 8 8 8 8 7 7 8 9 9 9 9 9 9 9 9 8 8 9 8 9 9 10 9 10 10 10
20 20 19 19 19 20 20 19 18 17 16 15 15 16 16 16 15 14 14 15 15 15 15 15 13 13 13 13 13 12 12 12 12 12 11 11 11 11 11 11 11 11 10 11 11 11 11 11 11 11 11 11 11 9 9 8 7 8 8 7 7 7 7 7 7 8 9 9 9 9 8 9 8 9 8 7 8 8 8 9 11 10 8 8 9
20 20 19 19 18 18 17 17 16 16 16 15 16 15 15 15 14 14 13 14 13 15 15 14 14 13 13 13 13 12 12 12 11 11 12 12 12 12 12 12 11 11 11 11 11 11 11 11 11 12 11 11 12 9 7 4 6 7 7 7 8 8 7 7 7 8 9 9 9 9 9 9 9 9 9 7 8 9 8 8 11 12 12 13 11
20 20 20 19 17 17 17 15 15 16 16 16 16 15 15 15 15 15 14 14 13 13 13 13 14 14 13 13 13 12 11 11 11 15 13 11 12 10 10 11 11 10 10 10 11 12 12 11 11 13 11 10 11 12 11 9 9 9 8 7 8 8 8 8 8 8 8 9 9 9 10 10 9 10 9 9 10 11 12 11 13 12 13 14 12
20 20 19 18 17 17 16 16 15 16 16 16 15 15 15 14 13 14 14 13 13 12 12 14 14 13 14 13 14 12 12 11 15 16 15 14 11 10 10 10 10 10 11 10 10 11 11 11 11 11 11 11 12 14 13 13 14 14 14 14 10 9 8 10 10 9 9 10 9 9 10 10 12 11 9 9 10 12 11 9 9 10 12 14 16
21 19 18 16 17 18 17 17 16 16 16 16 16 15 14 14 14 14 14 14 13 12 13 14 13 13 12 13 14 13 12 13 16 17 17 17 14 11 10 10 9 10 10 11 10 10 11 11 11 9 10 12 11 11 13 15 14 15 16 16 17 17 14 11 10 10 11 11 11 10 10 10 12 11 9 10 8 9 10 11 10 12 14 13 12
19 18 17 17 17 16 16 17 17 16 16 16 15 14 15 15 15 14 15 14 12 13 13 13 13 13 13 13 13 13 13 13 16 17 17 18 17 15 11 10 10 10 10 11 11 10 10 10 10 9 9 11 11 12 10 10 15 18 17 18 18 17 17 18 17 14 12 13 12 13 12 11 12 12 10 10 7 9 11 11 11 12 12 14 14
18 19 18 17 17 17 17 17 16 16 15 15 15 15 16 16 16 14 13 13 13 13 14 14 13 13 13 13 12 12 14 12 18 18 18 18 18 16 13 12 11 11 11 11 10 11 11 10 10 10 10 10 10 11 11 11 8 9 11 11 11 14 16 18 18 20 17 15 15 15 13 12 13 13 12 9 8 12 12 13 11 12 13 15 16
17 18 18 17 17 17 17 17 16 15 15 15 15 15 16 15 15 14 13 14 14 13 14 14 13 13 14 14 13 13 13 13 18 19 18 19 18 15 14 13 11 11 12 12 12 12 11 11 11 11 10 10 10 10 11 9 9 8 9 11 11 11 11 12 14 13 12 13 15 17 15 13 14 15 13 10 11 10 9 11 13 17 16 15 15
17 17 17 17 18 18 18 17 16 15 16 16 16 16 15 15 15 14 13 12 12 12 13 13 14 14 14 14 14 14 13 15 17 18 19 18 18 12 13 13 13 12 12 12 12 11 12 12 11 12 11 12 12 12 11 10 9 9 10 11 12 12 11 10 10 10 11 10 12 13 12 9 2 7 10 13 11 10 11 13 12 13 14 15 16
18 18 18 18 18 18 18 18 17 16 17 17 17 16 15 15 14 12 13 13 13 13 13 13 13 14 15 15 15 13 13 14 18 19 19 19 15 12 13 12 12 13 13 12 12 12 12 12 13 11 12 12 12 12 13 12 11 11 10 11 11 11 11 10 13 16 16 16 18 17 14 6 3 10 15 15 11 9 10 13 14 12 11 14 16
18 18 18 18 17 18 17 17 17 17 16 17 17 16 15 14 14 13 14 14 14 14 13 12 13 14 15 16 15 14 14 14 19 19 20 21 18 13 11 12 12 12 12 13 12 12 13 15 14 13 12 12 12 13 14 11 11 12 12 12 13 13 12 11 9 8 16 18 18 17 12 8 9 15 15 15 16 10 8 13 13 11 11 10 13
18 18 18 17 17 16 16 17 16 16 16 16 15 15 15 15 13 13 14 14 13 12 12 12 13 13 14 16 15 16 15 13 20 20 21 22 18 13 12 11 12 12 12 12 13 12 12 12 16 16 14 13 12 12 13 11 12 12 12 12 13 13 12 10 9 10 8 8 8 4 4 9 10 9 11 18 18 14 10 11 10 11 11 11 11
18 17 16 16 16 15 15 16 16 16 16 15 14 14 13 13 14 14 13 12 12 13 13 12 14 12 13 14 13 16 16 12 16 22 21 21 22 14 12 12 12 13 12 11 11 12 12 12 13 18 19 17 14 13 13 14 13 13 11 12 13 13 11 10 9 8 9 9 9 5 5 6 8 8 9 10 10 12 11 10 9 9 10 11 11
15 15 15 16 16 16 15 16 17 16 15 14 14 14 13 14 13 13 14 12 12 13 14 13 13 13 13 13 13 15 14 15 13 22 22 23 24 20 14 14 13 12 12 12 12 12 12 12 12 14 19 19 19 18 14 14 14 13 13 13 13 8 5 6 6 6 9 9 6 5 8 7 7 8 8 8 7 7 9 9 9 9 9 10 12
15 15 15 16 16 16 16 15 15 14 14 13 14 14 13 13 13 13 12 12 13 13 12 12 12 12 12 12 12 12 12 15 10 20 22 23 23 25 15 15 13 12 12 12 12 12 12 10 11 11 17 19 20 18 17 14 16 10 15 15 12 10 7 8 10 10 9 6 6 7 7 7 7 6 6 7 7 6 3 4 6 7 7 7 8
15 15 15 15 15 15 15 16 14 12 13 14 14 14 13 13 12 12 12 12 12 13 13 12 11 11 10 10 10 11 11 10 14 13 21 23 24 24 22 17 15 13 12 13 13 12 11 12 12 11 15 17 17 17 16 17 13 12 16 17 16 13 6 7 9 10 9 7 6 7 6 6 6 5 5 4 4 3 4 5 6 7 8 8 8
15 15 15 15 15 14 14 15 14 13 14 13 13 13 13 12 12 11 11 12 11 12 11 11 11 11 11 11 11 11 11 10 13 17 17 23 22 24 24 22 15 14 13 13 13 13 11 12 11 11 14 15 16 15 15 14 11 16 17 19 18 12 5 8 9 8 7 7 7 6 5 4 5 4 3 2 4 4 4 5 5 6 6 7 8
14 14 14 14 14 13 13 13 13 13 13 14 13 13 14 13 12 12 12 12 12 11 11 11 12 11 11 11 11 11 11 12 11 15 21 22 23 23 24 24 22 16 14 12 12 11 4 1 3 11 14 14 14 12 9 12 16 16 16 15 12 6 6 7 8 7 7 6 5 5 5 4 3 1 1 3 4 5 3 3 3 5 6 6 8
13 13 13 14 14 14 13 13 13 13 13 12 13 12 13 13 12 12 12 12 12 12 11 11 11 11 11 11 11 10 11 11 11 11 15 18 19 22 23 23 22 20 16 13 3 8 9 9 9 9 7 6 6 5 8 7 12 11 9 7 8 8 6 7 8 7 6 6 5 5 4 2 1 1 2 3 3 1 2 3 4 3 4 5 7
11 11 12 12 12 12 13 11 11 12 13 12 12 12 12 12 13 12 13 12 12 12 12 11 11 11 11 11 10 10 10 11 11 10 11 10 10 11 12 13 15 14 11 10 5 4 6 4 4 4 5 8 3 4 5 7 5 4 5 6 7 7 6 6 6 4 4 5 5 4 2 1 2 3 2 2 1 1 2 3 3 4 5 5 6
11 11 12 11 10 12 11 12 12 11 12 13 12 12 12 13 13 13 13 12 12 12 12 12 12 11 11 11 11 11 10 10 11 11 10 10 11 11 12 11 11 10 11 11 11 12 6 7 8 6 5 6 6 7 6 6 5 4 5 6 7 9 7 4 1 4 3 1 2 4 4 3 3 1 1 1 2 2 3 4 5 5 5 6 6
9 10 10 10 10 10 11 11 11 10 10 11 11 8 8 12 13 12 11 11 12 12 12 11 11 11 11 10 10 11 10 10 10 8 8 9 10 11 11 12 12 11 14 14 11 11 9 7 9 9 9 10 9 8 7 7 7 7 7 7 8 8 8 7 5 4 4 4 3 3 3 1 0 1 0 2 3 3 5 5 4 4 5 4 5
9 9 9 9 9 9 10 10 11 11 10 10 11 4 8 9 6 2 7 1 4 10 6 7 7 9 11 10 9 10 9 8 6 12 10 10 11 10 7 12 13 11 14 17 11 10 13 11 11 10 10 10 10 10 10 9 9 9 9 8 8 8 8 7 6 3 1 1 1 2 0 1 0 1 2 4 4 4 4 3 3 3 4 4 5
8 7 6 5 1 5 9 8 9 9 9 9 9 9 6 3 9 10 7 4 6 8 7 8 9 9 4 8 8 6 4 11 8 11 12 12 13 11 7 9 14 11 16 13 11 11 12 13 12 11 11 10 10 11 11 10 9 10 9 8 8 7 6 5 4 1 1 2 1 1 1 2 2 3 4 4 4 3 1 1 2 3 3 4 5
7 8 7 6 4 1 4 6 7 7 8 7 7 6 7 8 4 7 8 7 9 8 7 7 8 7 8 5 4 5 7 7 8 9 11 11 12 12 8 8 11 16 18 17 10 10 12 11 12 12 11 12 11 10 11 11 10 10 8 7 7 6 6 5 3 3 2 2 1 0 1 2 2 3 3 2 2 2 2 2 2 3 3 3 3
7 6 5 6 7 6 6 6 6 7 8 7 6 5 7 8 8 7 3 8 8 6 5 7 5 5 6 5 2 2 2 2 7 6 6 7 6 6 9 10 13 15 16 11 9 10 11 11 11 11 11 11 11 11 11 10 9 10 8 8 7 6 6 4 4 3 3 1 1 1 0 1 1 1 1 1 1 1 1 2 2 2 3 3 4
5 4 3 4 4 5 6 6 6 5 4 4 5 6 7 7 7 6 6 6 3 3 6 8 6 3 3 5 5 5 2 3 9 9 10 10 12 13 13 7 9 14 12 9 9 9 10 10 10 9 10 10 10 10 10 9 9 9 8 8 7 6 5 5 4 4 4 3 3 2 2 1 1 1 1 1 1 1 1 1 2 3 3 4 4
5 7 10 7 3 6 6 5 4 3 4 4 4 5 5 5 5 5 5 5 6 7 7 4 7 10 4 4 9 6 3 7 10 11 12 13 15 16 16 11 7 5 6 8 9 7 7 7 6 6 8 7 7 8 9 9 9 9 8 8 7 6 6 6 5 5 4 3 3 3 2 2 2 2 2 2 2 1 0 1 1 2 3 3 4
3 3 4 2 3 3 2 1 1 2 3 4 4 4 4 5 6 6 5 5 5 5 6 4 5 7 11 11 8 8 8 7 9 12 14 16 17 17 9 8 8 9 9 8 6 4 6 7 6 7 8 6 6 7 8 9 8 8 8 8 8 7 7 7 6 5 4 4 4 3 3 3 3 4 3 2 2 2 0 0 1 2 3 4 3
4 3 2 1 3 2 2 2 2 1 1 2 3 3 4 5 5 5 5 6 5 5 4 5 5 5 5 5 7 9 9 10 9 10 11 15 17 10 7 8 8 9 8 9 8 11 11 10 8 9 8 9 7 6 7 7 8 8 8 7 7 8 7 7 6 6 5 5 5 5 5 4 4 4 4 3 2 1 2 2 3 1 1 3 6
7 7 7 8 5 1 0 3 4 3 4 5 3 3 4 5 5 6 6 6 5 5 3 3 4 5 5 4 3 3 7 11 14 12 7 4 4 3 4 6 8 9 8 8 7 7 7 8 8 8 8 8 8 9 9 8 7 8 8 8 8 6 7 7 7 6 6 6 6 6 5 4 4 4 3 2 2 2 1 1 2 2 4 6 4
3 8 2 4 5 4 4 4 4 6 5 5 4 4 4 4 4 4 4 3 2 4 3 4 4 3 4 5 5 7 9 7 7 8 8 8 5 3 3 6 6 7 7 7 7 6 7 8 8 8 8 8 7 7 8 9 7 7 8 8 8 8 8 8 7 7 7 6 6 6 5 5 4 3 3 3 3 2 2 2 2 2 2 1 1
4 1 5 6 4 1 2 2 2 3 3 3 3 3 3 3 4 5 5 5 5 4 3 3 3 4 3 4 6 7 6 7 8 9 8 8 6 5 5 5 6 7 8 9 8 7 7 7 8 8 9 9 9 9 8 8 8 8 7 8 9 10 9 8 8 8 7 7 6 6 5 5 4 4 3 3 2 3 3 3 2 2 2 3 2
5 3 3 1 3 4 2 2 2 2 2 2 2 1 0 2 2 1 3 3 4 4 3 4 4 4 3 4 4 3 6 8 8 8 9 8 7 7 7 6 4 6 8 9 9 8 7 8 8 8 8 9 8 8 8 7 7 7 7 8 9 9 8 8 8 7 7 7 6 6 5 5 4 4 4 3 2 4 4 4 5 4 3 3 2
7 6 5 2 2 3 1 1 3 4 2 2 0 3 2 1 2 2 2 2 4 5 5 5 5 5 6 13 13 12 6 6 7 9 8 7 8 8 8 8 6 4 6 7 9 9 8 8 8 7 7 7 7 7 7 7 6 6 6 7 7 8 8 8 7 7 7 6 6 6 6 4 3 2 1 1 5 5 4 4 3 3 3 3 2
8 6 5 4 4 2 3 2 1 0 2 1 3 5 6 3 0 1 2 3 4 5 6 7 7 6 7 9 14 12 9 8 7 6 6 7 6 7 8 8 6 5 5 5 6 7 7 7 7 7 7 7 6 6 7 6 4 5 5 6 6 7 7 7 7 7 6 6 5 5 4 5 5 6 4 4 4 4 4 3 4 4 4 4 4
7 7 5 4 4 3 3 3 1 3 6 8 8 5 3 2 3 2 3 4 5 6 7 8 8 8 8 9 9 9 9 8 8 7 7 7 8 9 9 9 8 8 8 9 8 8 8 9 9 8 8 8 8 8 7 6 5 4 4 5 5 6 6 7 7 7 6 5 5 5 6 5 2 3 4 4 4 5 5 4 4 4 4 4 4
7 7 7 5 5 5 2 2 3 4 5 5 5 5 5 4 4 4 4 5 6 7 8 9 9 8 8 8 9 9 9 10 10 10 8 8 9 9 9 9 9 9 8 9 9 9 8 8 8 8 8 8 7 8 7 6 5 5 5 3 4 4 3 3 2 2 1 2 4 5 4 3 5 6 5 6 5 5 6 5 5 3 4 6 5
8 8 8 7 6 6 6 4 4 4 4 4 5 6 6 7 7 7 7 7 8 8 8 8 9 10 10 10 10 9 9 10 11 10 9 8 8 8 8 8 8 7 8 8 8 9 8 8 8 9 9 8 8 8 7 7 6 6 6 6 6 5 4 4 3 1 1 2 2 3 4 5 4 6 4 5 6 6 6 5 5 6 5 5 5
7 7 7 6 6 6 6 7 6 4 4 4 5 6 7 7 8 8 8 9 9 9 8 8 9 9 9 10 10 10 9 9 8 9 10 9 9 9 9 8 8 8 8 8 8 9 9 9 9 9 9 9 9 8 7 6 6 6 7 7 6 6 6 5 4 3 3 3 3 4 4 5 6 7 4 7 7 7 7 7 7 6 6 6 6
7 7 7 7 7 6 6 6 7 8 7 7 7 7 7 8 8 8 8 8 9 9 9 9 10 10 11 11 11 9 8 9 9 9 9 9 9 10 10 10 9 8 9 9 10 9 9 9 9 9 9 9 9 8 8 7 7 7 7 7 7 7 8 9 4 4 5 4 3 4 5 6 6 7 8 7 8 8 8 8 7 7 8 7 7
8 8 7 8 8 8 7 7 7 7 8 7 8 8 8 8 8 8 8 8 8 9 9 10 10 9 10 10 10 11 10 9 9 9 9 8 8 8 9 10 11 10 9 9 9 9 9 9 9 9 9 9 9 9 9 9 8 8 8 7 8 12 11 11 7 7 9 6 4 4 5 6 7 7 8 9 9 9 9 10 9 9 8 8 8
9 9 9 9 9 9 9 8 8 8 8 8 8 9 9 9 9 9 9 9 9 9 9 9 9 9 9 10 10 10 11 11 10 9 9 8 8 8 9 11 10 9 9 10 10 9 9 9 9 9 9 9 10 10 9 9 8 8 8 7 10 11 11 11 8 11 9 5 5 4 5 5 7 8 9 9 9 9 9 10 10 10 10 10 9
10 10 11 11 11 11 10 9 9 9 9 9 9 9 9 9 9 9 8 8 8 9 10 9 10 10 10 9 10 10 11 11 10 9 9 9 8 8 9 9 10 9 9 9 9 8 8 9 9 9 9 9 9 9 8 8 8 8 9 12 13 14 13 12 9 12 13 11 5 5 4 4 4 4 4 5 6 6 7 7 6 7 7 8 9
Wind_Direction
185 187 187 191 189 190 193 195 198 199 202 201 205 205 206 209 207 209 202 207 201 200 201 204 206 209 214 213 214 215 218 219 218 218 218 222 225 228 236 223 223 230 233 241 241 237 234 236 235 233 234 237 235 239 236 223 222 229 227 224 227 220 221 233 252 270 271 264 272 275 280 280 266 247 254 256 257 241 222 240 245 246 248 250 255
189 186 188 189 190 191 193 192 194 195 198 199 202 203 205 205 206 204 207 203 204 203 201 203 204 207 212 211 213 215 211 213 219 217 218 220 221 221 220 219 222 226 233 234 234 238 234 236 238 234 227 232 235 236 237 236 224 224 219 224 230 226 214 232 244 264 279 273 265 267 274 261 263 251 255 259 264 263 259 253 247 245 248 255 254
189 186 186 187 189 189 190 190 191 195 198 198 201 202 201 204 202 204 207 204 202 207 203 205 202 205 210 209 209 211 210 210 212 218 217 216 219 223 221 215 217 221 223 228 231 231 235 235 237 236 232 228 228 236 240 241 241 240 235 226 227 234 225 218 241 258 271 277 272 273 265 262 261 268 261 260 261 259 259 258 256 254 249 247 254
189 187 188 189 188 187 190 192 193 195 199 200 201 202 203 202 200 204 205 208 202 203 207 205 202 203 206 208 206 207 206 208 211 212 215 215 217 219 223 222 220 222 226 229 229 231 235 236 241 241 236 232 231 234 234 236 236 233 235 234 236 238 239 230 226 248 263 275 274 269 275 275 271 265 263 256 258 257 254 258 254 255 255 255 254
189 188 189 189 188 188 190 192 194 197 200 201 201 202 204 202 198 202 203 207 206 200 201 204 203 202 205 205 205 206 206 207 209 213 213 213 216 218 219 220 222 224 228 231 233 235 236 239 241 239 236 235 231 230 231 230 231 233 231 228 231 231 230 232 233 235 250 260 271 268 267 265 265 266 261 264 262 257 251 249 253 256 253 255 262
190 187 188 189 188 190 191 192 195 197 199 200 202 202 202 203 198 198 202 204 205 205 198 200 201 202 205 204 206 206 207 208 208 212 214 213 212 218 217 220 221 223 226 228 228 229 235 236 237 239 238 235 234 230 229 229 229 233 234 233 232 229 230 232 234 240 246 256 263 271 258 259 263 257 257 252 258 265 264 260 257 254 255 259 259
188 188 188 190 188 190 191 192 194 196 197 201 201 200 202 201 201 198 199 202 202 205 201 199 200 202 202 205 206 205 206 207 208 209 213 214 213 215 220 219 222 222 225 227 229 229 231 234 234 234 236 236 236 231 225 225 230 237 233 234 232 234 235 236 236 241 249 257 262 263 271 265 259 265 255 249 255 261 273 278 266 252 244 250 262
187 188 188 190 189 191 191 191 193 194 195 198 200 201 201 201 201 200 197 201 203 204 205 200 200 201 202 204 205 204 205 207 207 209 209 211 211 214 217 222 222 222 224 226 230 232 232 234 236 233 233 235 235 232 225 225 228 236 237 233 231 231 239 245 246 251 256 262 263 272 275 281 276 268 269 262 262 259 251 260 273 279 273 262 259
188 188 188 190 190 189 188 188 189 188 191 191 197 200 200 200 199 199 198 201 204 206 206 205 199 201 202 203 203 204 206 208 208 206 207 207 211 213 215 218 221 224 226 227 226 230 236 238 239 241 236 230 232 235 236 237 232 237 241 236 232 236 241 244 249 254 258 260 267 268 269 270 272 276 273 268 271 277 283 281 287 292 294 294 286
187 188 189 190 187 183 183 184 185 187 189 190 193 195 197 197 198 199 199 202 204 207 207 206 205 202 202 201 202 203 207 210 204 201 202 206 206 214 214 217 221 222 223 227 230 229 230 237 242 240 239 231 222 218 217 219 238 253 256 246 241 242 244 247 246 249 255 260 261 264 266 268 271 269 275 286 291 287 287 292 295 298 300 295 289
187 188 189 187 181 179 180 182 181 185 187 188 188 191 194 194 197 198 200 202 205 201 206 206 209 207 204 203 203 205 207 211 192 188 195 205 210 208 213 215 216 220 222 223 230 232 234 234 242 236 222 224 226 221 214 206 214 228 243 255 266 263 253 252 253 251 253 256 258 259 262 270 272 275 279 292 290 290 294 296 298 298 296 298 299
187 187 185 180 178 177 179 179 181 183 183 185 186 188 191 193 195 196 199 200 201 203 205 207 209 211 209 208 209 210 214 203 182 186 190 194 204 212 212 216 216 217 221 226 227 231 234 237 236 238 236 234 238 226 215 211 210 219 231 236 240 246 250 256 261 259 256 260 259 256 266 269 277 279 276 285 293 298 300 297 291 290 290 289 289
184 183 180 177 178 177 176 179 182 182 184 184 184 184 188 193 194 195 198 199 198 202 205 206 208 212 214 214 216 216 221 190 179 183 189 192 198 211 223 222 221 222 222 223 229 231 232 233 238 237 239 219 227 240 244 216 200 213 220 230 238 238 240 242 245 250 262 264 263 265 265 275 279 278 283 292 298 288 290 287 290 293 296 291 287
181 181 178 177 176 176 178 180 182 183 182 181 183 186 190 194 196 197 198 198 201 204 206 207 208 209 214 217 219 224 229 178 177 182 188 190 195 201 224 228 230 230 228 228 227 229 229 230 231 233 234 232 232 234 236 240 225 195 215 229 235 232 229 235 240 244 246 253 259 262 263 264 265 271 281 293 293 288 287 286 293 291 286 284 291
181 180 178 178 176 177 180 182 182 182 182 184 187 191 193 194 197 199 201 201 201 204 206 207 209 210 211 215 218 222 231 184 177 183 187 188 191 197 219 228 232 232 232 232 233 233 230 228 231 235 235 233 234 230 234 234 231 237 226 221 224 233 234 221 220 227 228 234 244 251 256 255 263 271 277 274 266 270 286 298 296 292 289 290 287
180 180 179 179 180 181 181 183 183 183 185 187 191 195 195 196 197 199 204 205 205 204 207 212 211 212 213 215 217 221 225 188 178 182 184 186 182 196 214 224 229 232 231 232 232 232 232 233 232 232 235 237 232 220 229 239 245 242 244 249 253 254 254 254 239 212 219 228 232 241 244 250 268 275 280 281 288 286 287 287 289 287 290 292 292
182 182 182 182 183 183 184 184 184 186 188 190 195 195 195 196 197 196 202 207 206 207 209 211 213 214 214 213 216 220 226 194 177 180 182 180 176 203 211 219 224 228 234 232 232 233 231 231 231 234 233 235 230 214 213 221 240 243 245 251 254 256 256 250 218 221 227 228 236 239 242 231 233 261 266 278 274 283 289 286 279 280 286 293 297
183 182 183 183 183 184 186 186 186 187 189 194 195 196 196 196 197 196 202 205 209 210 209 212 212 214 214 215 212 217 224 195 177 180 181 176 184 199 207 214 220 224 229 231 232 233 232 226 230 233 236 237 226 207 214 205 232 240 245 250 250 250 252 251 257 220 214 230 234 239 250 274 262 258 266 268 267 261 255 268 283 295 292 292 293
182 182 183 183 181 182 184 185 186 188 192 194 194 195 196 197 198 197 203 206 211 211 211 212 214 214 216 217 207 214 225 202 175 180 181 179 187 202 207 212 216 221 224 227 227 231 233 224 218 227 234 237 229 215 213 204 233 239 243 247 249 250 248 255 251 259 256 244 232 215 221 220 235 242 245 244 242 240 234 244 268 284 290 297 301
186 182 180 178 179 180 181 183 186 190 190 192 195 197 197 199 199 198 202 205 206 211 210 213 216 216 216 217 214 214 222 220 177 181 179 181 189 198 208 212 217 218 222 226 226 226 231 235 219 209 223 231 235 227 215 206 227 242 245 246 249 247 248 245 246 258 263 269 289 274 271 280 268 248 243 239 224 223 224 234 246 263 276 283 290
179 177 178 179 179 181 182 184 186 189 190 191 195 197 199 202 201 200 204 206 208 210 212 215 217 220 221 218 221 219 216 221 180 179 180 183 190 197 210 212 216 217 218 227 230 232 230 229 239 203 204 216 224 226 219 212 220 237 244 249 248 267 347 288 282 296 278 278 287 280 275 277 275 275 269 262 248 197 205 232 242 257 269 283 292
176 175 177 179 179 181 184 184 185 186 189 189 193 198 201 203 203 203 207 208 210 210 212 217 220 221 221 220 223 223 212 203 196 180 182 186 188 199 207 213 212 214 217 225 229 232 232 231 235 205 189 207 216 221 221 216 222 231 245 254 267 272 268 269 268 270 273 269 273 279 280 278 283 284 289 287 288 300 281 243 247 290 319 324 314
174 174 175 178 181 182 183 181 181 186 188 190 194 196 198 203 204 204 206 210 207 209 210 213 217 223 222 221 221 219 221 201 198 176 188 186 191 197 206 214 203 212 222 226 228 235 232 234 237 208 187 200 207 215 215 218 221 235 249 255 255 254 260 257 264 268 269 275 276 276 279 273 263 265 269 291 325 12 321 300 302 297 290 289 283
172 172 173 177 178 180 181 181 183 188 187 188 192 194 197 199 201 201 201 205 207 206 210 209 214 218 219 222 224 221 214 216 196 179 182 192 191 195 203 214 210 213 220 231 228 233 234 232 234 197 179 188 200 206 211 207 217 227 234 245 252 256 256 255 254 253 251 259 262 265 266 272 279 274 296 356 311 329 290 281 270 272 280 290 289
170 172 172 175 177 179 180 183 185 189 187 188 190 194 196 196 198 201 200 204 208 209 208 208 212 215 221 225 224 221 216 214 213 185 182 189 193 195 202 206 214 214 219 228 233 236 264 251 176 166 179 184 191 196 203 210 221 229 234 246 258 258 225 225 238 240 248 255 255 250 265 267 284 301 2 305 286 262 249 264 293 286 287 285 287
171 172 171 174 177 179 180 185 186 188 189 190 192 194 196 196 200 198 201 204 206 208 209 210 213 215 218 221 223 220 217 216 215 196 185 188 194 197 200 204 209 213 217 229 77 58 73 83 88 112 133 146 153 184 210 203 215 233 258 258 253 248 230 220 211 220 240 248 246 262 265 272 257 349 287 246 246 264 337 332 318 316 323 316 310
171 172 175 177 179 185 185 187 186 188 193 195 195 197 199 200 200 200 202 206 205 206 209 212 216 217 215 220 223 224 221 222 219 211 183 185 193 193 203 210 213 214 219 228 194 182 118 160 140 128 114 159 190 114 100 107 142 192 221 226 240 251 257 250 250 248 241 249 249 251 298 306 287 244 219 221 214 58 13 345 331 350 342 331 314
176 179 180 181 182 186 190 186 189 193 193 199 201 199 200 205 203 202 204 205 206 204 208 211 212 210 216 216 220 221 221 221 220 218 199 191 194 193 191 194 192 189 201 210 214 218 187 110 124 149 144 171 190 208 206 204 192 188 212 220 234 249 276 333 9 243 256 263 253 254 256 246 236 225 253 151 45 58 34 15 5 349 341 330 324
181 182 185 187 186 185 191 190 197 200 193 196 209 208 207 205 206 206 208 210 209 205 206 212 210 216 214 216 215 218 222 221 220 201 206 185 187 194 193 195 194 190 200 193 195 204 200 191 213 211 210 213 212 206 194 198 203 209 210 220 234 246 258 266 264 250 236 233 231 232 224 220 213 187 256 74 57 38 34 20 1 343 327 329 330
179 192 193 197 195 186 200 196 196 202 201 195 195 146 44 51 25 256 206 95 276 247 251 228 226 216 218 217 219 219 222 233 173 175 180 175 181 199 187 182 187 191 179 174 180 189 204 215 215 207 207 212 209 204 197 196 198 205 211 217 228 237 237 236 245 250 137 150 214 233 95 278 336 27 29 30 38 25 40 351 333 329 320 332 341
166 174 174 186 243 212 201 205 194 198 212 205 204 183 167 102 63 54 47 19 4 352 325 313 328 341 322 231 213 199 114 91 137 169 171 176 184 190 180 167 176 166 144 153 181 197 204 210 209 207 206 207 207 205 199 198 206 209 209 207 215 221 225 229 221 188 186 214 211 310 324 351 11 24 20 28 15 353 353 306 301 312 324 334 342
159 159 158 152 105 156 204 212 201 189 197 210 206 189 192 197 178 52 52 51 42 34 13 346 338 328 330 352 314 217 143 137 130 163 179 182 187 194 174 123 135 134 158 164 180 200 209 209 208 209 205 207 205 205 202 204 203 205 192 186 199 201 205 212 158 199 206 202 208 209 14 14 13 26 11 22 353 313 345 325 343 339 338 320 337
147 149 146 142 151 158 188 189 197 197 198 184 182 186 198 206 209 195 98 74 78 69 47 33 16 345 341 335 21 239 330 339 163 146 168 181 161 130 116 126 139 147 145 168 199 204 210 209 210 207 204 207 205 202 200 201 196 192 188 189 189 187 199 142 139 195 197 187 198 165 180 64 5 34 13 5 288 310 354 329 345 342 325 330 334
108 95 120 159 141 159 185 189 185 182 179 182 191 190 201 209 209 210 180 176 165 85 85 72 52 42 90 49 7 351 325 165 150 138 130 125 125 121 114 106 123 155 163 186 200 208 207 209 208 200 197 204 202 189 183 178 178 179 180 182 183 170 146 132 169 176 181 152 207 152 191 215 114 243 191 233 172 287 290 312 346 337 351 341 338
102 66 40 8 183 186 197 183 180 172 177 183 184 196 195 194 209 203 205 200 201 200 204 152 75 49 46 43 30 27 63 124 132 131 126 129 129 130 120 119 130 178 209 209 205 209 213 206 190 159 185 168 147 143 148 161 172 175 172 166 159 150 146 166 173 168 165 169 195 184 182 178 168 200 202 209 228 236 308 314 27 1 342 327 336
121 121 125 157 213 200 192 179 137 184 202 214 216 218 209 203 203 212 215 210 211 197 216 147 110 91 85 64 60 64 72 99 126 135 142 143 150 151 157 168 158 173 185 196 194 175 189 185 164 143 155 144 138 148 154 154 159 162 168 157 152 153 160 169 161 161 179 187 178 145 150 188 184 197 195 164 199 238 199 18 46 26 338 340 325
79 84 98 166 216 206 140 92 155 26 165 200 201 227 230 234 229 227 220 219 214 227 136 119 148 133 123 93 82 69 84 98 104 121 147 160 169 181 192 183 187 177 176 180 176 182 185 172 153 142 141 138 142 144 151 157 155 154 154 156 148 158 166 167 159 165 178 180 159 164 193 180 177 203 211 187 199 197 198 201 198 166 355 336 271
31 17 18 358 321 152 334 187 88 68 205 198 178 211 210 222 224 225 224 215 217 196 158 150 159 210 192 120 121 115 102 105 100 91 103 131 191 204 183 182 170 159 160 168 160 156 143 126 134 138 144 142 146 157 155 150 160 158 154 150 152 141 116 135 141 170 177 168 165 169 189 167 185 174 205 196 198 172 178 264 297 239 205 214 249
98 116 54 306 320 322 175 201 165 207 184 216 193 200 216 215 207 221 222 193 151 204 186 157 197 162 97 113 117 132 133 137 148 143 145 151 154 163 141 143 139 139 147 157 156 143 132 129 123 126 136 135 146 151 149 151 152 161 162 156 147 138 153 168 163 173 171 171 163 171 174 169 178 187 216 187 181 204 206 216 235 278 290 302 6
334 185 72 332 259 162 260 161 181 181 170 205 205 211 202 219 229 212 214 207 199 193 187 184 147 107 116 140 141 163 162 150 146 150 149 153 139 112 102 114 129 133 138 144 137 129 125 117 125 132 134 138 147 149 153 155 158 154 162 155 151 156 167 168 165 169 169 164 165 166 166 171 169 175 193 219 208 198 231 237 232 253 291 309 312
338 337 308 97 354 280 178 208 144 86 152 171 67 229 301 6 308 302 211 206 197 171 124 107 105 104 97 91 40 359 162 152 145 138 142 137 123 117 117 113 122 136 141 135 130 131 128 130 133 137 135 136 138 140 143 147 148 158 160 159 162 162 162 159 164 165 155 162 165 168 167 173 181 204 196 175 183 255 230 249 240 236 233 233 262
339 333 322 316 221 271 316 17 82 94 78 66 85 19 48 167 251 243 210 176 145 131 122 109 104 96 93 97 86 77 99 133 139 129 114 111 117 124 126 128 119 117 123 131 133 132 134 134 132 126 124 123 127 127 127 128 142 148 154 165 164 160 156 154 159 157 165 166 170 174 177 176 168 221 234 286 244 230 247 246 271 273 272 286 272
332 328 329 315 301 327 324 37 18 107 79 91 84 44 25 16 111 137 143 121 118 117 112 111 114 111 100 99 98 93 94 89 67 70 97 99 89 82 79 77 81 80 83 95 100 101 105 107 102 103 100 95 90 96 98 98 112 139 155 160 158 159 156 156 156 164 175 172 171 169 179 174 193 216 212 218 238 249 255 259 260 267 265 259 260
333 332 326 319 335 321 340 310 33 62 60 61 64 51 50 62 60 64 93 110 112 116 117 120 120 113 108 98 96 101 97 82 78 72 62 72 81 86 81 77 82 91 88 86 82 77 83 86 90 90 89 89 86 77 69 67 63 87 127 145 146 149 157 161 168 174 176 183 171 172 190 198 220 249 232 232 258 266 256 248 262 265 282 288 290
349 340 335 334 0 340 348 24 33 58 66 76 77 71 63 64 72 81 93 102 112 117 119 120 115 104 87 88 95 88 82 83 83 83 88 96 95 95 98 99 99 96 78 74 92 98 96 95 98 94 91 85 81 77 73 63 53 47 38 40 105 105 85 74 63 69 160 201 193 196 226 239 227 233 239 242 248 258 268 261 254 260 263 260 261
358 353 0 358 359 343 353 5 34 53 68 77 87 84 75 69 68 72 80 85 78 78 70 72 76 78 82 86 91 86 82 87 90 92 100 100 98 92 79 80 79 74 72 73 73 78 85 90 90 91 88 86 84 84 81 77 68 55 45 41 34 39 31 17 8 327 247 248 255 245 231 238 248 276 287 298 290 284 284 288 284 270 274 285 273
7 15 17 13 13 18 21 19 24 34 52 62 77 83 84 82 80 77 76 83 88 87 87 87 88 87 88 92 94 94 80 68 74 81 87 82 73 68 70 71 73 75 73 73 75 76 75 74 75 78 79 79 78 74 72 68 66 59 52 40 30 16 18 355 335 333 339 338 315 279 278 274 268 269 186 182 229 244 250 259 271 275 277 275 287
18 27 30 26 20 22 27 37 51 52 58 59 64 69 75 79 82 86 93 95 95 96 95 91 88 88 90 88 91 84 75 76 71 68 68 64 58 55 51 50 55 62 64 60 55 57 59 62 64 66 70 69 69 68 67 60 59 51 51 45 32 11 344 324 320 355 355 330 304 286 270 262 262 261 263 266 271 276 271 275 270 258 251 250 257
30 33 40 40 37 27 28 33 41 48 54 58 61 61 62 65 69 71 74 83 91 98 104 104 102 99 95 94 94 93 90 86 84 83 79 69 61 60 62 53 41 39 46 53 54 53 52 52 52 56 60 61 60 59 59 53 49 45 40 36 12 351 350 344 341 5 316 282 263 261 259 258 259 263 268 268 269 268 262 257 260 271 278 272 262
42 40 44 46 44 42 37 37 38 43 48 52 56 60 60 63 61 61 63 64 66 67 71 77 86 91 97 96 97 98 98 96 88 88 87 89 85 80 80 81 77 63 55 48 46 44 48 49 50 51 53 59 59 57 48 47 45 37 34 16 354 358 5 351 11 4 345 341 315 296 295 280 274 271 268 268 264 259 257 261 261 257 257 265 273
46 45 46 47 47 48 48 45 44 45 45 45 47 48 49 47 48 47 46 47 53 56 59 60 60 61 65 72 79 86 89 92 91 85 76 71 68 63 64 66 69 70 71 73 74 60 51 51 48 51 49 48 49 52 52 48 43 34 15 5 9 7 9 7 5 353 350 338 328 349 351 348 333 325 327 349 347 330 344 345 326 308 290 281 279